When you browse on this site, cookies collect data to enhance your experience and personalize the content and advertising you see.
Visit our Privacy Policy to learn more. By continuing to use the site, you agree to this use of cookies and data.
  • In Hungary
  • List of Countries
  • For 7 days
  • Water Temperature
  • Weather Map
  • News
  • Weather Widgets
  • user-avatar
    Login

    Hourly Weather Bogoslovka

    Today, 23 October, Wednesday

    Time Temperature Precipitation Wind Pressure Humidity
    00:00 +10°C° 0 mm 1 mps 748 mmHg 77%
    01:00 +8°C° 0 mm 2 mps 747 mmHg 80%
    02:00 +8°C° 0 mm 2 mps 747 mmHg 84%
    03:00 +7°C° 0 mm 3 mps 747 mmHg 90%
    04:00 +7°C° 0 mm 3 mps 747 mmHg 91%
    05:00 +7°C° 0 mm 3 mps 746 mmHg 92%
    06:00 +7°C° 0 mm 3 mps 746 mmHg 93%
    07:00 +7°C° 0 mm 4 mps 746 mmHg 89%
    08:00 +8°C° 0 mm 5 mps 746 mmHg 86%
    09:00 +9°C° 0 mm 5 mps 745 mmHg 83%
    10:00 +10°C° 0 mm 6 mps 745 mmHg 80%
    11:00 +11°C° 0 mm 6 mps 745 mmHg 77%
    12:00 +13°C° 0 mm 6 mps 744 mmHg 75%
    13:00 +13°C° 0.7 mm 6 mps 744 mmHg 80%
    14:00 +12°C° 0.7 mm 5 mps 744 mmHg 86%
    15:00 +12°C° 0.7 mm 4 mps 744 mmHg 92%
    16:00 +12°C° 0.2 mm 4 mps 744 mmHg 92%
    17:00 +12°C° 0.2 mm 4 mps 744 mmHg 92%
    18:00 +12°C° 0.2 mm 4 mps 743 mmHg 91%
    19:00 +11°C° 0 mm 4 mps 744 mmHg 92%
    20:00 +11°C° 0 mm 4 mps 744 mmHg 92%
    21:00 +11°C° 0 mm 4 mps 744 mmHg 92%
    22:00 +11°C° 0 mm 3 mps 744 mmHg 92%
    23:00 +10°C° 0 mm 2 mps 744 mmHg 92%

    Tomorrow, 24 October, Thursday

    Time Temperature Precipitation Wind Pressure Humidity
    00:00 +10°C° 0 mm 2 mps 744 mmHg 93%
    01:00 +10°C° 0 mm 2 mps 744 mmHg 91%
    02:00 +9°C° 0 mm 2 mps 745 mmHg 90%
    03:00 +10°C° 0 mm 1 mps 745 mmHg 88%
    04:00 +10°C° 0 mm 1 mps 745 mmHg 88%
    05:00 +10°C° 0 mm 1 mps 745 mmHg 87%
    06:00 +9°C° 0 mm 1 mps 745 mmHg 87%
    07:00 +10°C° 0 mm 1 mps 746 mmHg 84%
    08:00 +10°C° 0 mm 1 mps 746 mmHg 81%
    09:00 +11°C° 0 mm 1 mps 746 mmHg 79%
    10:00 +12°C° 0 mm 1 mps 746 mmHg 75%
    11:00 +12°C° 0 mm 1 mps 746 mmHg 71%
    12:00 +13°C° 0 mm 1 mps 747 mmHg 67%
    13:00 +13°C° 0 mm 1 mps 747 mmHg 66%
    14:00 +13°C° 0 mm 1 mps 747 mmHg 65%
    15:00 +13°C° 0 mm 0 mps 747 mmHg 65%
    16:00 +13°C° 0 mm 1 mps 747 mmHg 69%
    17:00 +12°C° 0 mm 1 mps 747 mmHg 73%
    18:00 +11°C° 0 mm 1 mps 747 mmHg 78%
    19:00 +11°C° 0 mm 1 mps 747 mmHg 79%
    20:00 +11°C° 0 mm 1 mps 747 mmHg 80%
    21:00 +10°C° 0 mm 1 mps 747 mmHg 81%
    22:00 +11°C° 0 mm 1 mps 747 mmHg 81%
    23:00 +11°C° 0 mm 1 mps 747 mmHg 80%

    Day after tomorrow, 25 October, Friday

    Time Temperature Precipitation Wind Pressure Humidity
    00:00 +11°C° 0 mm 1 mps 747 mmHg 80%
    01:00 +11°C° 0 mm 1 mps 747 mmHg 80%
    02:00 +11°C° 0 mm 1 mps 747 mmHg 80%
    03:00 +10°C° 0 mm 1 mps 747 mmHg 80%
    04:00 +10°C° 0 mm 1 mps 747 mmHg 80%
    05:00 +10°C° 0 mm 1 mps 747 mmHg 80%
    06:00 +10°C° 0 mm 1 mps 747 mmHg 81%
    07:00 +10°C° 0.2 mm 1 mps 747 mmHg 82%
    08:00 +10°C° 0.2 mm 1 mps 747 mmHg 84%
    09:00 +10°C° 0.2 mm 1 mps 747 mmHg 86%
    10:00 +10°C° 0.1 mm 1 mps 748 mmHg 85%
    11:00 +11°C° 0.1 mm 1 mps 748 mmHg 85%
    12:00 +11°C° 0.1 mm 1 mps 748 mmHg 85%
    13:00 +11°C° 0 mm 1 mps 748 mmHg 85%
    14:00 +10°C° 0 mm 2 mps 748 mmHg 84%
    15:00 +12°C° 0 mm 2 mps 747 mmHg 84%
    16:00 +10°C° 0.1 mm 2 mps 748 mmHg 86%
    17:00 +10°C° 0.1 mm 2 mps 748 mmHg 89%
    18:00 +9°C° 0.1 mm 2 mps 748 mmHg 91%
    19:00 +9°C° 1 mm 2 mps 748 mmHg 91%
    20:00 +10°C° 1 mm 1 mps 748 mmHg 92%
    21:00 +10°C° 1 mm 1 mps 747 mmHg 93%
    22:00 +9°C° 0.8 mm 2 mps 747 mmHg 93%
    23:00 +10°C° 0.8 mm 2 mps 747 mmHg 93%

    26 October, Saturday

    Time Temperature Precipitation Wind Pressure Humidity
    00:00 +10°C° 0.8 mm 2 mps 747 mmHg 94%
    01:00 +10°C° 0.4 mm 2 mps 747 mmHg 94%
    02:00 +10°C° 0.4 mm 2 mps 747 mmHg 95%
    03:00 +10°C° 0.4 mm 2 mps 747 mmHg 95%
    04:00 +10°C° 0.6 mm 2 mps 747 mmHg 95%
    05:00 +10°C° 0.6 mm 2 mps 747 mmHg 95%
    06:00 +10°C° 0.6 mm 2 mps 747 mmHg 95%
    07:00 +10°C° 0.4 mm 2 mps 747 mmHg 94%
    08:00 +10°C° 0.4 mm 3 mps 747 mmHg 93%
    09:00 +11°C° 0.4 mm 3 mps 747 mmHg 92%
    10:00 +11°C° 0 mm 3 mps 747 mmHg 88%
    11:00 +12°C° 0 mm 4 mps 746 mmHg 84%
    12:00 +13°C° 0 mm 4 mps 746 mmHg 80%
    13:00 +13°C° 0 mm 4 mps 746 mmHg 77%
    14:00 +13°C° 0 mm 4 mps 746 mmHg 75%
    15:00 +13°C° 0 mm 5 mps 745 mmHg 72%
    16:00 +13°C° 0 mm 4 mps 745 mmHg 76%
    17:00 +12°C° 0 mm 4 mps 745 mmHg 80%
    18:00 +11°C° 0 mm 3 mps 745 mmHg 84%
    19:00 +10°C° 0 mm 3 mps 745 mmHg 85%
    20:00 +10°C° 0 mm 3 mps 745 mmHg 86%
    21:00 +10°C° 0 mm 3 mps 745 mmHg 87%
    22:00 +10°C° 0 mm 3 mps 745 mmHg 87%
    23:00 +10°C° 0 mm 4 mps 745 mmHg 88%

    27 October, Sunday

    Time Temperature Precipitation Wind Pressure Humidity
    00:00 +10°C° 0 mm 4 mps 744 mmHg 89%
    01:00 +10°C° 0 mm 4 mps 744 mmHg 90%
    02:00 +8°C° 0 mm 4 mps 744 mmHg 90%
    03:00 +8°C° 0 mm 4 mps 744 mmHg 91%
    04:00 +8°C° 0 mm 4 mps 744 mmHg 91%
    05:00 +8°C° 0 mm 4 mps 743 mmHg 91%
    06:00 +8°C° 0 mm 4 mps 743 mmHg 91%
    07:00 +8°C° 0 mm 5 mps 743 mmHg 88%
    08:00 +9°C° 0 mm 5 mps 743 mmHg 86%
    09:00 +9°C° 0 mm 6 mps 742 mmHg 83%
    10:00 +10°C° 0 mm 6 mps 742 mmHg 78%
    11:00 +11°C° 0 mm 6 mps 742 mmHg 74%
    12:00 +14°C° 0 mm 7 mps 741 mmHg 70%
    13:00 +14°C° 0 mm 7 mps 741 mmHg 69%
    14:00 +14°C° 0 mm 7 mps 741 mmHg 67%
    15:00 +14°C° 0 mm 7 mps 740 mmHg 66%
    16:00 +12°C° 0 mm 7 mps 740 mmHg 68%
    17:00 +12°C° 0 mm 7 mps 740 mmHg 69%
    18:00 +11°C° 0 mm 6 mps 739 mmHg 71%
    19:00 +11°C° 0 mm 6 mps 739 mmHg 72%
    20:00 +11°C° 0 mm 6 mps 739 mmHg 72%
    21:00 +11°C° 0 mm 6 mps 739 mmHg 73%
    22:00 +10°C° 0 mm 6 mps 738 mmHg 74%
    23:00 +10°C° 0 mm 6 mps 738 mmHg 74%

    28 October, Monday

    Time Temperature Precipitation Wind Pressure Humidity
    00:00 +10°C° 0 mm 6 mps 738 mmHg 74%
    01:00 +9°C° 0 mm 6 mps 737 mmHg 76%
    02:00 +9°C° 0 mm 6 mps 737 mmHg 77%
    03:00 +9°C° 0 mm 6 mps 737 mmHg 78%
    04:00 +8°C° 0 mm 6 mps 737 mmHg 79%
    05:00 +8°C° 0 mm 6 mps 736 mmHg 80%
    06:00 +8°C° 0 mm 6 mps 736 mmHg 81%
    07:00 +8°C° 0 mm 6 mps 736 mmHg 81%
    08:00 +9°C° 0 mm 6 mps 737 mmHg 81%
    09:00 +9°C° 0 mm 6 mps 737 mmHg 81%
    10:00 +10°C° 0 mm 5 mps 737 mmHg 78%
    11:00 +12°C° 0 mm 5 mps 738 mmHg 76%
    12:00 +13°C° 0 mm 5 mps 738 mmHg 74%
    13:00 +12°C° 0.1 mm 4 mps 738 mmHg 75%
    14:00 +11°C° 0.1 mm 3 mps 738 mmHg 76%
    15:00 +10°C° 0.1 mm 2 mps 738 mmHg 77%
    16:00 +10°C° 0 mm 2 mps 738 mmHg 77%
    17:00 +10°C° 0 mm 1 mps 738 mmHg 77%
    18:00 +10°C° 0 mm 1 mps 738 mmHg 77%
    19:00 +9°C° 0 mm 0 mps 738 mmHg 77%
    20:00 +9°C° 0 mm 0 mps 738 mmHg 78%
    21:00 +8°C° 0 mm 0 mps 738 mmHg 78%
    22:00 +8°C° 0 mm 0 mps 738 mmHg 79%
    23:00 +8°C° 0 mm 0 mps 738 mmHg 80%

    29 October, Tuesday

    Time Temperature Precipitation Wind Pressure Humidity
    00:00 +7°C° 0 mm 0 mps 738 mmHg 81%
    01:00 +7°C° 0 mm 0 mps 738 mmHg 82%
    02:00 +7°C° 0 mm 0 mps 738 mmHg 82%
    03:00 +7°C° 0 mm 0 mps 737 mmHg 83%
    04:00 +7°C° 0 mm 0 mps 737 mmHg 84%
    05:00 +8°C° 0 mm 1 mps 737 mmHg 86%
    06:00 +8°C° 0 mm 1 mps 737 mmHg 87%
    07:00 +7°C° 0.2 mm 0 mps 736 mmHg 87%
    08:00 +7°C° 0.2 mm 0 mps 736 mmHg 88%
    09:00 +8°C° 0.2 mm 0 mps 736 mmHg 88%
    10:00 +9°C° 0.5 mm 1 mps 736 mmHg 86%
    11:00 +9°C° 0.5 mm 1 mps 736 mmHg 84%
    12:00 +10°C° 0.5 mm 1 mps 736 mmHg 81%
    13:00 +10°C° 0 mm 1 mps 736 mmHg 76%
    14:00 +9°C° 0 mm 2 mps 736 mmHg 71%
    15:00 +9°C° 0 mm 2 mps 736 mmHg 66%
    16:00 +8°C° 0 mm 2 mps 736 mmHg 69%
    17:00 +7°C° 0 mm 2 mps 736 mmHg 72%
    18:00 +7°C° 0 mm 2 mps 736 mmHg 75%
    19:00 +6°C° 0 mm 2 mps 736 mmHg 75%
    20:00 +5°C° 0 mm 2 mps 737 mmHg 75%
    21:00 +5°C° 0 mm 2 mps 737 mmHg 75%
    22:00 +5°C° 0 mm 2 mps 737 mmHg 76%
    23:00 +4°C° 0 mm 2 mps 737 mmHg 77%
    Show more